Regional Weather Roundup
Issued by NWS Little Rock, AR

Home | Current Version | Previous Version | Graphics & Text | Print | Product List | Glossary On
Versions: 1 2 3 4 5 6 7 8 9 10 11 12 13 14 15 16 17 18 19 20 21 22 23 24 25 26 27 28 29 30 31 32 33 34 35 36 37 38 39 40 41 42 43 44 45 46 47 48 49 50
000
ASUS44 KLZK 251405
RWRLZK

WEATHER ROUNDUP FOR ARKANSAS
NATIONAL WEATHER SERVICE LITTLE ROCK AR
800 AM CST TUE NOV 25 2014

NOTE: "FAIR" INDICATES FEW OR NO CLOUDS BELOW 12,000 FEET WITH NO
SIGNIFICANT WEATHER AND/OR OBSTRUCTIONS TO VISIBILITY.

ARZ001-003-010-029-251500-
NORTHWEST ARKANSAS

CITY           SKY/WX    TMP DP  RH WIND       PRES   REMARKS
FAYETTEVILLE   CLEAR     23  22  96 CALM      30.24R
FORT SMITH     CLEAR     33  28  81 SW3       30.27R
HARRISON       CLEAR     31  17  56 NW9       30.21R WCI  23
BENTONVILLE    CLEAR     28  16  59 CALM      30.24R
ROGERS         CLEAR     28  18  66 NW6       30.24R WCI  22
SILOAM SPGS    CLEAR     27  16  63 CALM      30.25R
HIGHFILL       CLEAR     29  18  63 N5        30.24R WCI  24
SPRINGDALE     CLEAR     28  18  64 NW5       30.25R WCI  23
$$

ARZ004-005-016-251500-
NORTH CENTRAL ARKANSAS

CITY           SKY/WX    TMP DP  RH WIND       PRES   REMARKS
BATESVILLE     SUNNY     34  23  64 CALM      30.24R
FLIPPIN        SUNNY     28  18  64 NW6       30.22R WCI  22
MTN HOME       SUNNY     32  15  49 VRB7      30.20R WCI  26
$$

ARZ040-041-251500-
WEST CENTRAL ARKANSAS

CITY           SKY/WX    TMP DP  RH WIND       PRES   REMARKS
MENA             N/A     32  28  86 CALM      30.25
MOUNT IDA      SUNNY     28  26  92 W3        30.23R
$$

ARZ009-017-025-026-028-251500-
NORTHEAST ARKANSAS

CITY           SKY/WX    TMP DP  RH WIND       PRES   REMARKS
CORNING        FAIR      32  28  86 W6        30.22R WCI  26
JONESBORO      SUNNY     36  27  69 W3        30.22R
NEWPORT        SUNNY     35  27  73 NW6       30.25R WCI  30
WALNUT RIDGE   SUNNY     34  23  64 W5        30.22R WCI  30
BLYTHEVILLE    SUNNY     43  29  57 W9        30.22R
$$

ARZ022-023-033-042-044-251500-
CENTRAL ARKANSAS

CITY           SKY/WX    TMP DP  RH WIND       PRES   REMARKS
LITTLE ROCK    MOSUNNY   35  29  78 CALM      30.26R
N LITTLE ROCK  MOSUNNY   37  29  73 NW5       30.26R
JACKSONVILLE   SUNNY     29  26  88 W3        30.24R
SEARCY         SUNNY     35  25  66 NW5       30.26R WCI  31
HOT SPRINGS    SUNNY     32  30  92 CALM      30.26R
RUSSELLVILLE   SUNNY     28  25  88 CALM      30.24R
CLINTON        FAIR      27  25  93 CALM      30.27R
$$

ARZ036-251500-
EAST ARKANSAS

CITY           SKY/WX    TMP DP  RH WIND       PRES   REMARKS
WEST MEMPHIS   SUNNY     35  30  82 CALM      30.22R
$$

ARZ050-053-066-070-073-251500-
SOUTHWEST ARKANSAS

CITY           SKY/WX    TMP DP  RH WIND       PRES   REMARKS
ARKADELPHIA    FAIR      31  31 100 CALM      30.29R
CAMDEN         SUNNY     28  27  93 CALM      30.28R
TEXARKANA      SUNNY     35  31  85 CALM      30.28R
EL DORADO      PTSUNNY   34  31  88 CALM      30.27R
DE QUEEN       SUNNY     30  30 100 CALM      30.27R
$$

ARZ056-057-069-251500-
SOUTHEAST ARKANSAS

CITY           SKY/WX    TMP DP  RH WIND       PRES   REMARKS
PINE BLUFF     SUNNY     33  29  85 CALM      30.25R
STUTTGART      SUNNY     36  27  69 CALM      30.25R
MONTICELLO     PTSUNNY   38  29  70 NW3       30.25R

$$





USA.gov is the U.S. government's official web portal to all federal, state and local government web resources and services.